Time,TemperatureF,DewpointF,PressureIn,WindDirection,WindDirectionDegrees,WindSpeedMPH,WindSpeedGustMPH,Humidity,HourlyPrecipIn,Conditions,Clouds,dailyrainin,SoftwareType,DateUTC
2013-03-04 00:00:00,35.5,32.5,30.34,East,85,0.0,1.0,89,0.00,,,0.00,WUHU216DAVISVP2,2013-03-04 08:00:00,
2013-03-04 00:05:00,35.6,32.6,30.34,ENE,75,0.0,2.0,89,0.00,,,0.00,WUHU216DAVISVP2,2013-03-04 08:05:00,
2013-03-04 00:10:00,35.4,32.4,30.34,ENE,75,0.0,2.0,89,0.00,,,0.00,WUHU216DAVISVP2,2013-03-04 08:10:00,
2013-03-04 00:15:00,35.3,32.6,30.34,ENE,72,0.0,2.0,90,0.00,,,0.00,WUHU216DAVISVP2,2013-03-04 08:15:00,
2013-03-04 00:20:00,35.4,32.7,30.34,ENE,60,2.0,2.0,90,0.00,,,0.00,WUHU216DAVISVP2,2013-03-04 08:20:00,
2013-03-04 00:25:00,35.5,32.5,30.34,NE,56,1.0,3.0,89,0.00,,,0.00,WUHU216DAVISVP2,2013-03-04 08:25:00,
2013-03-04 00:30:00,35.5,32.5,30.34,East,83,1.0,3.0,89,0.00,,,0.00,WUHU216DAVISVP2,2013-03-04 08:30:00,
2013-03-04 00:35:00,35.4,32.4,30.33,ENE,68,0.0,2.0,89,0.00,,,0.00,WUHU216DAVISVP2,2013-03-04 08:35:00,
2013-03-04 00:40:00,35.2,32.2,30.33,ENE,68,0.0,2.0,89,0.00,,,0.00,WUHU216DAVISVP2,2013-03-04 08:40:00,
2013-03-04 00:45:00,34.8,31.9,30.34,ENE,68,0.0,2.0,89,0.00,,,0.00,WUHU216DAVISVP2,2013-03-04 08:45:00,
2013-03-04 00:50:00,34.8,32.2,30.33,ENE,75,1.0,2.0,90,0.00,,,0.00,WUHU216DAVISVP2,2013-03-04 08:50:00,
2013-03-04 00:55:00,35.0,32.4,30.33,ENE,70,2.0,3.0,90,0.00,,,0.00,WUHU216DAVISVP2,2013-03-04 08:55:00,
2013-03-04 01:00:00,35.1,32.2,30.33,ENE,65,2.0,4.0,89,0.00,,,0.00,WUHU216DAVISVP2,2013-03-04 09:00:00,
2013-03-04 01:05:00,35.1,31.9,30.33,ENE,63,1.0,4.0,88,0.00,,,0.00,WUHU216DAVISVP2,2013-03-04 09:05:00,
2013-03-04 01:10:00,35.1,31.9,30.33,ENE,71,1.0,3.0,88,0.00,,,0.00,WUHU216DAVISVP2,2013-03-04 09:10:00,
2013-03-04 01:15:00,34.9,31.7,30.33,East,84,0.0,3.0,88,0.00,,,0.00,WUHU216DAVISVP2,2013-03-04 09:15:00,
2013-03-04 01:20:00,34.7,31.5,30.33,ENE,74,0.0,3.0,88,0.00,,,0.00,WUHU216DAVISVP2,2013-03-04 09:20:00,
2013-03-04 01:25:00,34.7,31.5,30.33,ENE,72,2.0,3.0,88,0.00,,,0.00,WUHU216DAVISVP2,2013-03-04 09:25:00,
2013-03-04 01:30:00,34.8,31.3,30.33,ESE,103,0.0,3.0,87,0.00,,,0.00,WUHU216DAVISVP2,2013-03-04 09:30:00,
2013-03-04 01:35:00,34.8,31.3,30.33,East,94,1.0,3.0,87,0.00,,,0.00,WUHU216DAVISVP2,2013-03-04 09:35:00,
2013-03-04 01:40:00,34.7,31.2,30.33,ENE,78,1.0,2.0,87,0.00,,,0.00,WUHU216DAVISVP2,2013-03-04 09:40:00,
2013-03-04 01:45:00,34.6,31.1,30.33,ENE,77,0.0,2.0,87,0.00,,,0.00,WUHU216DAVISVP2,2013-03-04 09:45:00,
2013-03-04 01:50:00,34.3,30.8,30.33,ENE,77,0.0,2.0,87,0.00,,,0.00,WUHU216DAVISVP2,2013-03-04 09:50:00,
2013-03-04 01:55:00,34.1,30.9,30.33,East,96,0.0,1.0,88,0.00,,,0.00,WUHU216DAVISVP2,2013-03-04 09:55:00,
2013-03-04 02:00:00,34.1,30.9,30.33,East,96,0.0,2.0,88,0.00,,,0.00,WUHU216DAVISVP2,2013-03-04 10:00:00,
2013-03-04 02:05:00,34.1,30.9,30.33,ENE,77,0.0,2.0,88,0.00,,,0.00,WUHU216DAVISVP2,2013-03-04 10:05:00,
2013-03-04 02:10:00,34.1,31.2,30.33,NE,53,0.0,3.0,89,0.00,,,0.00,WUHU216DAVISVP2,2013-03-04 10:10:00,
2013-03-04 02:15:00,34.0,31.1,30.33,NNE,29,0.0,3.0,89,0.00,,,0.00,WUHU216DAVISVP2,2013-03-04 10:15:00,
2013-03-04 02:20:00,33.9,31.2,30.33,East,98,1.0,3.0,90,0.00,,,0.00,WUHU216DAVISVP2,2013-03-04 10:20:00,
2013-03-04 02:25:00,33.9,31.2,30.33,NNE,13,0.0,3.0,90,0.00,,,0.00,WUHU216DAVISVP2,2013-03-04 10:25:00,
2013-03-04 02:30:00,33.8,30.9,30.33,North,354,0.0,3.0,89,0.00,,,0.00,WUHU216DAVISVP2,2013-03-04 10:30:00,
2013-03-04 02:35:00,33.4,30.8,30.32,North,354,0.0,2.0,90,0.00,,,0.00,WUHU216DAVISVP2,2013-03-04 10:35:00,
2013-03-04 02:40:00,33.0,30.3,30.32,North,354,0.0,2.0,90,0.00,,,0.00,WUHU216DAVISVP2,2013-03-04 10:40:00,
2013-03-04 02:45:00,32.7,30.3,30.32,East,92,0.0,1.0,91,0.00,,,0.00,WUHU216DAVISVP2,2013-03-04 10:45:00,
2013-03-04 02:50:00,32.8,30.4,30.32,NNW,346,0.0,2.0,91,0.00,,,0.00,WUHU216DAVISVP2,2013-03-04 10:50:00,
2013-03-04 02:55:00,32.9,30.6,30.32,North,1,2.0,3.0,91,0.00,,,0.00,WUHU216DAVISVP2,2013-03-04 10:55:00,
2013-03-04 03:00:00,33.1,30.4,30.32,NE,51,0.0,3.0,90,0.00,,,0.00,WUHU216DAVISVP2,2013-03-04 11:00:00,
2013-03-04 03:05:00,33.2,30.5,30.31,East,83,1.0,3.0,90,0.00,,,0.00,WUHU216DAVISVP2,2013-03-04 11:05:00,
2013-03-04 03:10:00,33.3,30.4,30.31,NNE,27,1.0,3.0,89,0.00,,,0.00,WUHU216DAVISVP2,2013-03-04 11:10:00,
2013-03-04 03:15:00,33.3,30.4,30.31,East,96,1.0,4.0,89,0.00,,,0.00,WUHU216DAVISVP2,2013-03-04 11:15:00,
2013-03-04 03:20:00,33.4,30.5,30.31,ESE,113,1.0,4.0,89,0.00,,,0.00,WUHU216DAVISVP2,2013-03-04 11:20:00,
2013-03-04 03:25:00,33.5,30.3,30.31,ESE,120,3.0,4.0,88,0.00,,,0.00,WUHU216DAVISVP2,2013-03-04 11:25:00,
2013-03-04 03:30:00,33.5,30.3,30.31,NE,36,1.0,4.0,88,0.00,,,0.00,WUHU216DAVISVP2,2013-03-04 11:30:00,
2013-03-04 03:35:00,33.5,30.3,30.31,East,79,1.0,3.0,88,0.00,,,0.00,WUHU216DAVISVP2,2013-03-04 11:35:00,
2013-03-04 03:40:00,33.5,30.3,30.31,NE,51,1.0,3.0,88,0.00,,,0.00,WUHU216DAVISVP2,2013-03-04 11:40:00,
2013-03-04 03:45:00,33.5,30.3,30.31,NNW,341,1.0,3.0,88,0.00,,,0.00,WUHU216DAVISVP2,2013-03-04 11:45:00,
2013-03-04 03:50:00,33.4,30.2,30.31,ENE,60,0.0,3.0,88,0.00,,,0.00,WUHU216DAVISVP2,2013-03-04 11:50:00,
2013-03-04 03:55:00,33.3,30.1,30.31,North,352,0.0,3.0,88,0.00,,,0.00,WUHU216DAVISVP2,2013-03-04 11:55:00,
2013-03-04 04:00:00,33.3,30.1,30.31,North,354,0.0,3.0,88,0.00,,,0.00,WUHU216DAVISVP2,2013-03-04 12:00:00,
2013-03-04 04:05:00,33.2,30.0,30.31,NNW,345,0.0,2.0,88,0.00,,,0.00,WUHU216DAVISVP2,2013-03-04 12:05:00,
2013-03-04 04:10:00,32.9,29.7,30.31,NNW,344,0.0,2.0,88,0.00,,,0.00,WUHU216DAVISVP2,2013-03-04 12:10:00,
2013-03-04 04:15:00,32.7,29.8,30.31,NE,39,0.0,2.0,89,0.00,,,0.00,WUHU216DAVISVP2,2013-03-04 12:15:00,
2013-03-04 04:20:00,32.8,29.9,30.31,North,4,0.0,3.0,89,0.00,,,0.00,WUHU216DAVISVP2,2013-03-04 12:20:00,
2013-03-04 04:25:00,32.9,30.0,30.31,North,360,0.0,3.0,89,0.00,,,0.00,WUHU216DAVISVP2,2013-03-04 12:25:00,
2013-03-04 04:30:00,32.9,30.0,30.31,North,4,2.0,3.0,89,0.00,,,0.00,WUHU216DAVISVP2,2013-03-04 12:30:00,
2013-03-04 04:35:00,32.8,30.1,30.31,NE,37,0.0,3.0,90,0.00,,,0.00,WUHU216DAVISVP2,2013-03-04 12:35:00,
2013-03-04 04:40:00,32.7,30.1,30.31,SSE,155,0.0,2.0,90,0.00,,,0.00,WUHU216DAVISVP2,2013-03-04 12:40:00,
2013-03-04 04:45:00,32.6,29.9,30.30,NNW,334,1.0,2.0,90,0.00,,,0.00,WUHU216DAVISVP2,2013-03-04 12:45:00,
2013-03-04 04:50:00,32.7,30.0,30.30,NNW,345,1.0,4.0,90,0.00,,,0.00,WUHU216DAVISVP2,2013-03-04 12:50:00,
2013-03-04 04:55:00,32.7,30.0,30.30,NNW,343,3.0,4.0,90,0.00,,,0.00,WUHU216DAVISVP2,2013-03-04 12:55:00,
2013-03-04 05:00:00,32.7,30.0,30.30,NNE,27,3.0,4.0,90,0.00,,,0.00,WUHU216DAVISVP2,2013-03-04 13:00:00,
2013-03-04 05:05:00,32.6,29.9,30.30,NNW,340,2.0,4.0,90,0.00,,,0.00,WUHU216DAVISVP2,2013-03-04 13:05:00,
2013-03-04 05:10:00,32.7,29.8,30.30,North,357,3.0,4.0,89,0.00,,,0.00,WUHU216DAVISVP2,2013-03-04 13:10:00,
2013-03-04 05:15:00,32.9,29.7,30.30,North,356,1.0,4.0,88,0.00,,,0.00,WUHU216DAVISVP2,2013-03-04 13:15:00,
2013-03-04 05:20:00,33.3,29.8,30.30,North,5,3.0,4.0,87,0.00,,,0.00,WUHU216DAVISVP2,2013-03-04 13:20:00,
2013-03-04 05:25:00,33.4,29.6,30.30,NNE,13,1.0,4.0,86,0.00,,,0.00,WUHU216DAVISVP2,2013-03-04 13:25:00,
2013-03-04 05:30:00,33.3,29.5,30.30,NW,316,1.0,4.0,86,0.00,,,0.00,WUHU216DAVISVP2,2013-03-04 13:30:00,
2013-03-04 05:35:00,33.2,29.7,30.30,NNW,345,2.0,5.0,87,0.00,,,0.00,WUHU216DAVISVP2,2013-03-04 13:35:00,
2013-03-04 05:40:00,32.9,29.4,30.30,North,350,3.0,5.0,87,0.00,,,0.00,WUHU216DAVISVP2,2013-03-04 13:40:00,
2013-03-04 05:45:00,32.7,29.5,30.29,NNW,338,2.0,4.0,88,0.00,,,0.00,WUHU216DAVISVP2,2013-03-04 13:45:00,
2013-03-04 05:50:00,32.5,29.6,30.29,NNW,338,1.0,4.0,89,0.00,,,0.00,WUHU216DAVISVP2,2013-03-04 13:50:00,
2013-03-04 05:55:00,32.3,29.4,30.29,North,6,2.0,4.0,89,0.00,,,0.00,WUHU216DAVISVP2,2013-03-04 13:55:00,
2013-03-04 06:00:00,32.0,29.1,30.28,NNW,329,2.0,4.0,89,0.00,,,0.00,WUHU216DAVISVP2,2013-03-04 14:00:00,
2013-03-04 06:05:00,31.9,29.3,30.29,North,359,1.0,4.0,90,0.00,,,0.00,WUHU216DAVISVP2,2013-03-04 14:05:00,
2013-03-04 06:10:00,31.8,29.2,30.29,North,1,1.0,3.0,90,0.00,,,0.00,WUHU216DAVISVP2,2013-03-04 14:10:00,
2013-03-04 06:15:00,31.7,29.1,30.29,NNE,16,0.0,3.0,90,0.00,,,0.00,WUHU216DAVISVP2,2013-03-04 14:15:00,
2013-03-04 06:20:00,31.6,29.2,30.28,North,354,0.0,2.0,91,0.00,,,0.00,WUHU216DAVISVP2,2013-03-04 14:20:00,
2013-03-04 06:25:00,31.7,29.3,30.28,NNW,338,0.0,4.0,91,0.00,,,0.00,WUHU216DAVISVP2,2013-03-04 14:25:00,
2013-03-04 06:30:00,31.7,29.4,30.28,NNE,17,0.0,4.0,91,0.00,,,0.00,WUHU216DAVISVP2,2013-03-04 14:30:00,
2013-03-04 06:35:00,31.7,29.4,30.28,NE,47,0.0,4.0,91,0.00,,,0.00,WUHU216DAVISVP2,2013-03-04 14:35:00,
2013-03-04 06:40:00,31.7,29.3,30.28,ENE,77,1.0,4.0,91,0.00,,,0.00,WUHU216DAVISVP2,2013-03-04 14:40:00,
2013-03-04 06:45:00,31.7,29.3,30.28,NE,51,1.0,4.0,91,0.00,,,0.00,WUHU216DAVISVP2,2013-03-04 14:45:00,
2013-03-04 06:50:00,31.7,29.3,30.27,NNE,23,2.0,5.0,91,0.00,,,0.00,WUHU216DAVISVP2,2013-03-04 14:50:00,
2013-03-04 06:55:00,31.7,29.3,30.27,NNE,28,4.0,5.0,91,0.00,,,0.00,WUHU216DAVISVP2,2013-03-04 14:55:00,
2013-03-04 07:00:00,31.7,29.3,30.27,NE,35,1.0,5.0,91,0.00,,,0.00,WUHU216DAVISVP2,2013-03-04 15:00:00,
2013-03-04 07:05:00,31.6,29.2,30.27,NE,53,0.0,5.0,91,0.00,,,0.00,WUHU216DAVISVP2,2013-03-04 15:05:00,
2013-03-04 07:10:00,31.7,29.3,30.27,ENE,75,0.0,4.0,91,0.00,,,0.00,WUHU216DAVISVP2,2013-03-04 15:10:00,
2013-03-04 07:15:00,31.8,29.4,30.27,NE,41,0.0,3.0,91,0.00,,,0.00,WUHU216DAVISVP2,2013-03-04 15:15:00,
2013-03-04 07:20:00,32.0,29.6,30.28,ENE,72,0.0,4.0,91,0.00,,,0.00,WUHU216DAVISVP2,2013-03-04 15:20:00,
2013-03-04 07:25:00,32.1,29.5,30.28,ENE,61,1.0,4.0,90,0.00,,,0.00,WUHU216DAVISVP2,2013-03-04 15:25:00,
2013-03-04 07:30:00,32.4,29.7,30.28,North,352,1.0,3.0,90,0.00,,,0.00,WUHU216DAVISVP2,2013-03-04 15:30:00,
2013-03-04 07:35:00,32.6,29.7,30.28,NNW,345,2.0,4.0,89,0.00,,,0.00,WUHU216DAVISVP2,2013-03-04 15:35:00,
2013-03-04 07:40:00,32.8,29.9,30.27,NNE,16,2.0,4.0,89,0.00,,,0.00,WUHU216DAVISVP2,2013-03-04 15:40:00,
2013-03-04 07:45:00,33.2,30.3,30.28,NNW,341,0.0,4.0,89,0.00,,,0.00,WUHU216DAVISVP2,2013-03-04 15:45:00,
2013-03-04 07:50:00,33.7,30.5,30.28,NE,53,0.0,4.0,88,0.00,,,0.00,WUHU216DAVISVP2,2013-03-04 15:50:00,
2013-03-04 07:55:00,34.2,30.7,30.28,North,360,1.0,4.0,87,0.00,,,0.00,WUHU216DAVISVP2,2013-03-04 15:55:00,
2013-03-04 08:00:00,34.7,30.9,30.28,NE,44,2.0,4.0,86,0.00,,,0.00,WUHU216DAVISVP2,2013-03-04 16:00:00,
2013-03-04 08:05:00,34.9,30.8,30.28,NNE,17,4.0,4.0,85,0.00,,,0.00,WUHU216DAVISVP2,2013-03-04 16:05:00,
2013-03-04 08:10:00,34.9,30.8,30.28,South,179,0.0,4.0,85,0.00,,,0.00,WUHU216DAVISVP2,2013-03-04 16:10:00,
2013-03-04 08:15:00,35.2,30.8,30.28,ENE,73,0.0,4.0,84,0.00,,,0.00,WUHU216DAVISVP2,2013-03-04 16:15:00,
2013-03-04 08:20:00,35.3,30.6,30.28,North,359,1.0,4.0,83,0.00,,,0.00,WUHU216DAVISVP2,2013-03-04 16:20:00,
2013-03-04 08:25:00,35.5,30.8,30.28,NNE,13,0.0,3.0,83,0.00,,,0.00,WUHU216DAVISVP2,2013-03-04 16:25:00,
2013-03-04 08:30:00,35.7,30.4,30.28,NNW,333,1.0,3.0,81,0.00,,,0.00,WUHU216DAVISVP2,2013-03-04 16:30:00,
2013-03-04 08:35:00,35.9,30.9,30.28,SSW,203,0.0,3.0,82,0.00,,,0.00,WUHU216DAVISVP2,2013-03-04 16:35:00,
2013-03-04 08:40:00,36.4,31.4,30.28,NNW,341,2.0,3.0,82,0.00,,,0.00,WUHU216DAVISVP2,2013-03-04 16:40:00,
2013-03-04 08:45:00,36.5,30.9,30.27,NNW,341,0.0,5.0,80,0.00,,,0.00,WUHU216DAVISVP2,2013-03-04 16:45:00,
2013-03-04 08:50:00,36.9,31.3,30.27,North,349,3.0,5.0,80,0.00,,,0.00,WUHU216DAVISVP2,2013-03-04 16:50:00,
2013-03-04 08:55:00,37.5,31.6,30.27,NW,321,1.0,5.0,79,0.00,,,0.00,WUHU216DAVISVP2,2013-03-04 16:55:00,
2013-03-04 09:00:00,37.8,31.2,30.27,North,353,1.0,5.0,77,0.00,,,0.00,WUHU216DAVISVP2,2013-03-04 17:00:00,
2013-03-04 09:05:00,37.9,31.4,30.27,NNE,32,1.0,4.0,77,0.00,,,0.00,WUHU216DAVISVP2,2013-03-04 17:05:00,
2013-03-04 09:10:00,38.7,32.4,30.26,ENE,70,1.0,4.0,78,0.00,,,0.00,WUHU216DAVISVP2,2013-03-04 17:10:00,
2013-03-04 09:15:00,39.1,31.8,30.26,NW,324,1.0,4.0,75,0.00,,,0.00,WUHU216DAVISVP2,2013-03-04 17:15:00,
2013-03-04 09:20:00,38.9,31.6,30.26,NE,43,0.0,4.0,75,0.00,,,0.00,WUHU216DAVISVP2,2013-03-04 17:20:00,
2013-03-04 09:25:00,39.1,32.2,30.26,NNW,335,2.0,3.0,76,0.00,,,0.00,WUHU216DAVISVP2,2013-03-04 17:25:00,
2013-03-04 09:30:00,39.2,31.6,30.26,North,8,0.0,3.0,74,0.00,,,0.00,WUHU216DAVISVP2,2013-03-04 17:30:00,
2013-03-04 09:35:00,39.2,31.6,30.25,North,358,7.0,7.0,74,0.00,,,0.00,WUHU216DAVISVP2,2013-03-04 17:35:00,
2013-03-04 09:40:00,39.2,31.6,30.25,North,349,7.0,8.0,74,0.00,,,0.00,WUHU216DAVISVP2,2013-03-04 17:40:00,
2013-03-04 09:45:00,39.5,32.0,30.25,North,352,1.0,8.0,74,0.00,,,0.00,WUHU216DAVISVP2,2013-03-04 17:45:00,
2013-03-04 09:50:00,39.9,32.0,30.26,NNW,329,1.0,8.0,73,0.00,,,0.00,WUHU216DAVISVP2,2013-03-04 17:50:00,
2013-03-04 09:55:00,40.1,32.2,30.25,NNW,347,2.0,7.0,73,0.00,,,0.00,WUHU216DAVISVP2,2013-03-04 17:55:00,
2013-03-04 10:00:00,40.1,32.2,30.25,NE,34,4.0,7.0,73,0.00,,,0.00,WUHU216DAVISVP2,2013-03-04 18:00:00,
2013-03-04 10:05:00,40.5,32.3,30.25,NNE,26,0.0,6.0,72,0.00,,,0.00,WUHU216DAVISVP2,2013-03-04 18:05:00,
2013-03-04 10:10:00,40.9,32.6,30.25,North,356,1.0,6.0,72,0.00,,,0.00,WUHU216DAVISVP2,2013-03-04 18:10:00,
2013-03-04 10:15:00,41.2,32.6,30.25,North,349,3.0,5.0,71,0.00,,,0.00,WUHU216DAVISVP2,2013-03-04 18:15:00,
2013-03-04 10:20:00,41.3,32.7,30.25,NNE,19,1.0,5.0,71,0.00,,,0.00,WUHU216DAVISVP2,2013-03-04 18:20:00,
2013-03-04 10:25:00,41.6,32.6,30.25,North,352,2.0,5.0,70,0.00,,,0.00,WUHU216DAVISVP2,2013-03-04 18:25:00,
2013-03-04 10:29:00,42.2,33.2,30.25,NNW,333,0.0,5.0,70,0.00,,,0.00,WUHU216DAVISVP2,2013-03-04 18:29:00,
2013-03-04 10:34:00,42.8,32.3,30.25,North,352,1.0,5.0,66,0.00,,,0.00,WUHU216DAVISVP2,2013-03-04 18:34:00,
2013-03-04 10:39:00,43.2,31.9,30.24,North,1,1.0,5.0,64,0.00,,,0.00,WUHU216DAVISVP2,2013-03-04 18:39:00,
2013-03-04 10:44:00,44.2,32.8,30.25,North,354,0.0,5.0,64,0.00,,,0.00,WUHU216DAVISVP2,2013-03-04 18:44:00,
2013-03-04 10:49:00,44.6,32.0,30.24,NNE,25,0.0,5.0,61,0.00,,,0.00,WUHU216DAVISVP2,2013-03-04 18:49:00,
2013-03-04 10:54:00,45.2,33.0,30.24,NNW,346,0.0,5.0,62,0.00,,,0.00,WUHU216DAVISVP2,2013-03-04 18:54:00,
2013-03-04 10:59:00,45.1,31.3,30.24,NE,53,0.0,4.0,58,0.00,,,0.00,WUHU216DAVISVP2,2013-03-04 18:59:00,
2013-03-04 11:04:00,45.7,32.7,30.23,North,352,3.0,4.0,60,0.00,,,0.00,WUHU216DAVISVP2,2013-03-04 19:04:00,
2013-03-04 11:09:00,45.9,31.6,30.23,North,350,0.0,4.0,57,0.00,,,0.00,WUHU216DAVISVP2,2013-03-04 19:09:00,
2013-03-04 11:14:00,46.2,31.8,30.23,North,357,1.0,4.0,57,0.00,,,0.00,WUHU216DAVISVP2,2013-03-04 19:14:00,
2013-03-04 11:19:00,47.1,31.8,30.23,North,356,1.0,4.0,55,0.00,,,0.00,WUHU216DAVISVP2,2013-03-04 19:19:00,
2013-03-04 11:24:00,47.8,31.0,30.22,NNW,328,0.0,4.0,52,0.00,,,0.00,WUHU216DAVISVP2,2013-03-04 19:24:00,
2013-03-04 11:30:00,48.4,34.8,30.22,NNE,27,2.0,3.0,59,0.00,,,0.00,WUHU216DAVISVP2,2013-03-04 19:30:00,
2013-03-04 11:34:00,48.7,35.9,30.22,South,187,0.0,3.0,61,0.00,,,0.00,WUHU216DAVISVP2,2013-03-04 19:34:00,
2013-03-04 11:39:00,48.3,35.0,30.21,North,359,3.0,5.0,60,0.00,,,0.00,WUHU216DAVISVP2,2013-03-04 19:39:00,
2013-03-04 11:44:00,48.6,33.7,30.21,NNW,342,0.0,5.0,56,0.00,,,0.00,WUHU216DAVISVP2,2013-03-04 19:44:00,
2013-03-04 11:49:00,48.9,33.5,30.21,North,8,3.0,5.0,55,0.00,,,0.00,WUHU216DAVISVP2,2013-03-04 19:49:00,
2013-03-04 11:54:00,48.7,33.3,30.20,East,90,1.0,4.0,55,0.00,,,0.00,WUHU216DAVISVP2,2013-03-04 19:54:00,
2013-03-04 11:59:00,49.1,29.1,30.20,NNW,342,3.0,7.0,46,0.00,,,0.00,WUHU216DAVISVP2,2013-03-04 19:59:00,
2013-03-04 12:04:00,49.1,34.5,30.20,East,101,3.0,9.0,57,0.00,,,0.00,WUHU216DAVISVP2,2013-03-04 20:04:00,
2013-03-04 12:09:00,49.3,30.4,30.20,ENE,68,2.0,9.0,48,0.00,,,0.00,WUHU216DAVISVP2,2013-03-04 20:09:00,
2013-03-04 12:14:00,49.9,29.3,30.19,NNW,330,2.0,9.0,45,0.00,,,0.00,WUHU216DAVISVP2,2013-03-04 20:14:00,
2013-03-04 12:20:00,50.8,28.5,30.19,NNW,333,0.0,8.0,42,0.00,,,0.00,WUHU216DAVISVP2,2013-03-04 20:20:00,
2013-03-04 12:25:00,50.3,27.9,30.19,NE,39,0.0,7.0,42,0.00,,,0.00,WUHU216DAVISVP2,2013-03-04 20:25:00,
2013-03-04 12:30:00,50.6,29.9,30.18,NW,319,3.0,7.0,45,0.00,,,0.00,WUHU216DAVISVP2,2013-03-04 20:30:00,
2013-03-04 12:35:00,50.3,29.7,30.18,NE,34,1.0,7.0,45,0.00,,,0.00,WUHU216DAVISVP2,2013-03-04 20:35:00,
2013-03-04 12:40:00,51.2,36.1,30.18,NE,49,0.0,7.0,56,0.00,,,0.00,WUHU216DAVISVP2,2013-03-04 20:40:00,
2013-03-04 12:45:00,51.3,29.5,30.18,NE,55,2.0,6.0,43,0.00,,,0.00,WUHU216DAVISVP2,2013-03-04 20:45:00,
2013-03-04 12:50:00,51.2,28.1,30.17,East,100,2.0,6.0,41,0.00,,,0.00,WUHU216DAVISVP2,2013-03-04 20:50:00,
2013-03-04 12:55:00,51.2,33.2,30.17,WSW,245,0.0,5.0,50,0.00,,,0.00,WUHU216DAVISVP2,2013-03-04 20:55:00,
2013-03-04 13:00:00,51.1,34.1,30.16,NW,318,2.0,7.0,52,0.00,,,0.00,WUHU216DAVISVP2,2013-03-04 21:00:00,
2013-03-04 13:05:00,51.1,32.0,30.16,NNE,19,5.0,7.0,48,0.00,,,0.00,WUHU216DAVISVP2,2013-03-04 21:05:00,
2013-03-04 13:10:00,50.6,29.4,30.16,ENE,67,1.0,6.0,44,0.00,,,0.00,WUHU216DAVISVP2,2013-03-04 21:10:00,
2013-03-04 13:15:00,50.8,34.3,30.15,North,351,3.0,7.0,53,0.00,,,0.00,WUHU216DAVISVP2,2013-03-04 21:15:00,
2013-03-04 13:20:00,51.1,29.2,30.15,NW,317,1.0,7.0,43,0.00,,,0.00,WUHU216DAVISVP2,2013-03-04 21:20:00,
2013-03-04 13:25:00,51.3,29.0,30.15,NNE,16,0.0,7.0,42,0.00,,,0.00,WUHU216DAVISVP2,2013-03-04 21:25:00,
2013-03-04 13:30:00,51.6,28.5,30.14,ESE,120,0.0,7.0,41,0.00,,,0.00,WUHU216DAVISVP2,2013-03-04 21:30:00,
2013-03-04 13:35:00,51.9,28.1,30.14,NNE,22,0.0,7.0,40,0.00,,,0.00,WUHU216DAVISVP2,2013-03-04 21:35:00,
2013-03-04 13:40:00,52.2,30.8,30.14,South,173,1.0,7.0,44,0.00,,,0.00,WUHU216DAVISVP2,2013-03-04 21:40:00,
2013-03-04 13:45:00,52.4,34.8,30.14,ENE,75,0.0,6.0,51,0.00,,,0.00,WUHU216DAVISVP2,2013-03-04 21:45:00,
2013-03-04 13:50:00,51.7,35.6,30.14,North,11,1.0,6.0,54,0.00,,,0.00,WUHU216DAVISVP2,2013-03-04 21:50:00,
2013-03-04 13:55:00,50.8,34.8,30.14,NNE,23,0.0,7.0,54,0.00,,,0.00,WUHU216DAVISVP2,2013-03-04 21:55:00,
2013-03-04 14:00:00,50.6,35.9,30.13,North,352,3.0,7.0,57,0.00,,,0.00,WUHU216DAVISVP2,2013-03-04 22:00:00,
2013-03-04 14:05:00,50.2,36.1,30.13,North,349,3.0,10.0,58,0.00,,,0.00,WUHU216DAVISVP2,2013-03-04 22:05:00,
2013-03-04 14:10:00,50.0,36.3,30.13,North,6,2.0,10.0,59,0.00,,,0.00,WUHU216DAVISVP2,2013-03-04 22:10:00,
2013-03-04 14:15:00,49.8,36.1,30.12,NNW,347,4.0,9.0,59,0.00,,,0.00,WUHU216DAVISVP2,2013-03-04 22:15:00,
2013-03-04 14:20:00,49.4,35.3,30.12,NNE,25,1.0,9.0,58,0.00,,,0.00,WUHU216DAVISVP2,2013-03-04 22:20:00,
2013-03-04 14:25:00,50.0,36.7,30.12,ENE,62,1.0,9.0,60,0.00,,,0.00,WUHU216DAVISVP2,2013-03-04 22:25:00,
2013-03-04 14:30:00,50.4,35.8,30.12,North,11,1.0,8.0,57,0.00,,,0.00,WUHU216DAVISVP2,2013-03-04 22:30:00,
2013-03-04 14:35:00,50.3,36.2,30.12,NNE,13,1.0,8.0,58,0.00,,,0.00,WUHU216DAVISVP2,2013-03-04 22:35:00,
2013-03-04 14:40:00,50.5,36.3,30.11,ENE,67,0.0,6.0,58,0.00,,,0.00,WUHU216DAVISVP2,2013-03-04 22:40:00,
2013-03-04 14:45:00,50.5,36.3,30.11,NE,39,0.0,7.0,58,0.00,,,0.00,WUHU216DAVISVP2,2013-03-04 22:45:00,
2013-03-04 14:50:00,50.7,36.1,30.10,NNW,340,1.0,8.0,57,0.00,,,0.00,WUHU216DAVISVP2,2013-03-04 22:50:00,
2013-03-04 14:55:00,50.7,35.6,30.10,NNW,338,2.0,9.0,56,0.00,,,0.00,WUHU216DAVISVP2,2013-03-04 22:55:00,
2013-03-04 15:00:00,50.8,35.7,30.10,North,5,0.0,9.0,56,0.00,,,0.00,WUHU216DAVISVP2,2013-03-04 23:00:00,
2013-03-04 15:05:00,51.2,35.6,30.10,NNE,26,1.0,8.0,55,0.00,,,0.00,WUHU216DAVISVP2,2013-03-04 23:05:00,
2013-03-04 15:10:00,51.3,37.1,30.10,North,354,0.0,8.0,58,0.00,,,0.00,WUHU216DAVISVP2,2013-03-04 23:10:00,
2013-03-04 15:15:00,51.9,37.7,30.10,NE,50,0.0,6.0,58,0.00,,,0.00,WUHU216DAVISVP2,2013-03-04 23:15:00,
2013-03-04 15:20:00,52.0,35.9,30.09,North,357,3.0,6.0,54,0.00,,,0.00,WUHU216DAVISVP2,2013-03-04 23:20:00,
2013-03-04 15:25:00,51.8,36.7,30.08,North,355,1.0,6.0,56,0.00,,,0.00,WUHU216DAVISVP2,2013-03-04 23:25:00,
2013-03-04 15:30:00,51.8,36.2,30.08,NNW,344,2.0,7.0,55,0.00,,,0.00,WUHU216DAVISVP2,2013-03-04 23:30:00,
2013-03-04 15:35:00,50.9,35.8,30.08,NNW,343,1.0,8.0,56,0.00,,,0.00,WUHU216DAVISVP2,2013-03-04 23:35:00,
2013-03-04 15:40:00,51.0,36.8,30.07,North,5,3.0,8.0,58,0.00,,,0.00,WUHU216DAVISVP2,2013-03-04 23:40:00,
2013-03-04 15:45:00,51.0,36.4,30.07,NNE,13,1.0,8.0,57,0.00,,,0.00,WUHU216DAVISVP2,2013-03-04 23:45:00,
2013-03-04 15:50:00,51.2,36.6,30.07,NNE,30,1.0,6.0,57,0.00,,,0.00,WUHU216DAVISVP2,2013-03-04 23:50:00,
2013-03-04 15:55:00,51.4,37.2,30.07,ESE,122,1.0,6.0,58,0.00,,,0.00,WUHU216DAVISVP2,2013-03-04 23:55:00,
2013-03-04 16:00:00,51.7,36.6,30.07,NNW,335,1.0,6.0,56,0.00,,,0.00,WUHU216DAVISVP2,2013-03-05 00:00:00,
2013-03-04 16:05:00,51.7,36.6,30.07,NNW,327,1.0,8.0,56,0.00,,,0.00,WUHU216DAVISVP2,2013-03-05 00:05:00,
2013-03-04 16:10:00,51.7,37.0,30.06,NE,34,0.0,8.0,57,0.00,,,0.00,WUHU216DAVISVP2,2013-03-05 00:10:00,
2013-03-04 16:15:00,51.6,36.0,30.06,West,269,1.0,8.0,55,0.00,,,0.00,WUHU216DAVISVP2,2013-03-05 00:15:00,
2013-03-04 16:20:00,51.2,36.0,30.06,North,349,1.0,8.0,56,0.00,,,0.00,WUHU216DAVISVP2,2013-03-05 00:20:00,
2013-03-04 16:25:00,50.9,36.7,30.06,WNW,292,0.0,7.0,58,0.00,,,0.00,WUHU216DAVISVP2,2013-03-05 00:25:00,
2013-03-04 16:30:00,50.7,36.5,30.06,North,349,1.0,7.0,58,0.00,,,0.00,WUHU216DAVISVP2,2013-03-05 00:30:00,
2013-03-04 16:35:00,50.4,36.7,30.06,NE,50,0.0,6.0,59,0.00,,,0.00,WUHU216DAVISVP2,2013-03-05 00:35:00,
2013-03-04 16:40:00,50.3,37.0,30.05,NNW,342,2.0,6.0,60,0.00,,,0.00,WUHU216DAVISVP2,2013-03-05 00:40:00,
2013-03-04 16:45:00,49.9,36.7,30.05,North,359,2.0,7.0,60,0.00,,,0.00,WUHU216DAVISVP2,2013-03-05 00:45:00,
2013-03-04 16:50:00,49.7,37.3,30.05,NNE,22,0.0,7.0,62,0.00,,,0.00,WUHU216DAVISVP2,2013-03-05 00:50:00,
2013-03-04 16:55:00,49.3,37.3,30.05,NE,41,3.0,6.0,63,0.00,,,0.00,WUHU216DAVISVP2,2013-03-05 00:55:00,
2013-03-04 17:00:00,49.0,37.5,30.05,WNW,290,1.0,6.0,64,0.00,,,0.00,WUHU216DAVISVP2,2013-03-05 01:00:00,
2013-03-04 17:05:00,48.5,37.4,30.05,NNW,347,3.0,7.0,65,0.00,,,0.00,WUHU216DAVISVP2,2013-03-05 01:05:00,
2013-03-04 17:10:00,48.0,37.3,30.05,NNW,338,1.0,7.0,66,0.00,,,0.00,WUHU216DAVISVP2,2013-03-05 01:10:00,
2013-03-04 17:15:00,47.9,37.5,30.04,NNW,333,3.0,6.0,67,0.00,,,0.00,WUHU216DAVISVP2,2013-03-05 01:15:00,
2013-03-04 17:20:00,47.7,37.3,30.04,NNE,15,6.0,6.0,67,0.00,,,0.00,WUHU216DAVISVP2,2013-03-05 01:20:00,
2013-03-04 17:25:00,47.4,37.4,30.04,North,351,4.0,6.0,68,0.00,,,0.00,WUHU216DAVISVP2,2013-03-05 01:25:00,
2013-03-04 17:30:00,47.1,37.2,30.04,NNW,345,3.0,7.0,68,0.00,,,0.00,WUHU216DAVISVP2,2013-03-05 01:30:00,
2013-03-04 17:35:00,46.9,37.0,30.04,North,359,3.0,7.0,68,0.00,,,0.00,WUHU216DAVISVP2,2013-03-05 01:35:00,
2013-03-04 17:40:00,46.7,36.8,30.04,North,349,4.0,7.0,68,0.00,,,0.00,WUHU216DAVISVP2,2013-03-05 01:40:00,
2013-03-04 17:45:00,46.5,37.0,30.04,NNE,18,0.0,7.0,69,0.00,,,0.00,WUHU216DAVISVP2,2013-03-05 01:45:00,
2013-03-04 17:50:00,46.2,36.7,30.04,NNE,20,2.0,6.0,69,0.00,,,0.00,WUHU216DAVISVP2,2013-03-05 01:50:00,
2013-03-04 17:55:00,46.1,36.1,30.04,NNE,18,2.0,6.0,68,0.00,,,0.00,WUHU216DAVISVP2,2013-03-05 01:55:00,
2013-03-04 18:00:00,46.1,35.8,30.04,ENE,77,0.0,6.0,67,0.00,,,0.00,WUHU216DAVISVP2,2013-03-05 02:00:00,
2013-03-04 18:05:00,46.0,35.4,30.04,North,353,3.0,5.0,66,0.00,,,0.00,WUHU216DAVISVP2,2013-03-05 02:05:00,
2013-03-04 18:10:00,46.1,35.1,30.04,North,350,2.0,6.0,65,0.00,,,0.00,WUHU216DAVISVP2,2013-03-05 02:10:00,
2013-03-04 18:15:00,46.1,35.1,30.04,North,356,1.0,6.0,65,0.00,,,0.00,WUHU216DAVISVP2,2013-03-05 02:15:00,
2013-03-04 18:20:00,46.0,35.0,30.04,North,1,2.0,5.0,65,0.00,,,0.00,WUHU216DAVISVP2,2013-03-05 02:20:00,
2013-03-04 18:25:00,46.0,34.6,30.03,North,356,1.0,4.0,64,0.00,,,0.00,WUHU216DAVISVP2,2013-03-05 02:25:00,
2013-03-04 18:30:00,46.1,33.4,30.03,East,80,0.0,4.0,61,0.00,,,0.00,WUHU216DAVISVP2,2013-03-05 02:30:00,
2013-03-04 18:35:00,46.3,32.4,30.03,ENE,65,0.0,4.0,58,0.00,,,0.00,WUHU216DAVISVP2,2013-03-05 02:35:00,
2013-03-04 18:40:00,46.6,29.9,30.03,ENE,70,1.0,6.0,52,0.00,,,0.00,WUHU216DAVISVP2,2013-03-05 02:40:00,
2013-03-04 18:45:00,47.0,28.3,30.03,ENE,58,1.0,6.0,48,0.00,,,0.00,WUHU216DAVISVP2,2013-03-05 02:45:00,
2013-03-04 18:50:00,47.3,27.5,30.03,ENE,69,2.0,6.0,46,0.00,,,0.00,WUHU216DAVISVP2,2013-03-05 02:50:00,
2013-03-04 18:55:00,47.3,26.9,30.02,NE,55,2.0,6.0,45,0.00,,,0.00,WUHU216DAVISVP2,2013-03-05 02:55:00,
2013-03-04 19:00:00,47.5,26.5,30.02,ENE,63,3.0,8.0,44,0.00,,,0.00,WUHU216DAVISVP2,2013-03-05 03:00:00,
2013-03-04 19:05:00,47.8,26.4,30.02,ESE,108,2.0,8.0,43,0.00,,,0.00,WUHU216DAVISVP2,2013-03-05 03:05:00,
2013-03-04 19:10:00,47.7,26.3,30.02,NE,49,3.0,7.0,43,0.00,,,0.00,WUHU216DAVISVP2,2013-03-05 03:10:00,
2013-03-04 19:15:00,47.7,26.1,30.02,NE,44,1.0,8.0,43,0.00,,,0.00,WUHU216DAVISVP2,2013-03-05 03:15:00,
2013-03-04 19:20:00,47.5,26.0,30.02,NNW,329,1.0,8.0,43,0.00,,,0.00,WUHU216DAVISVP2,2013-03-05 03:20:00,
2013-03-04 19:25:00,47.3,26.3,30.01,ENE,63,1.0,7.0,44,0.00,,,0.00,WUHU216DAVISVP2,2013-03-05 03:25:00,
2013-03-04 19:30:00,47.2,26.3,30.01,NE,47,0.0,7.0,44,0.00,,,0.00,WUHU216DAVISVP2,2013-03-05 03:30:00,
2013-03-04 19:35:00,47.0,26.1,30.01,ENE,68,1.0,6.0,44,0.00,,,0.00,WUHU216DAVISVP2,2013-03-05 03:35:00,
2013-03-04 19:40:00,46.8,26.5,30.01,ENE,74,3.0,5.0,45,0.00,,,0.00,WUHU216DAVISVP2,2013-03-05 03:40:00,
2013-03-04 19:45:00,46.7,26.4,30.01,ENE,72,4.0,5.0,45,0.00,,,0.00,WUHU216DAVISVP2,2013-03-05 03:45:00,
2013-03-04 19:50:00,46.6,26.4,30.01,ENE,68,1.0,5.0,45,0.00,,,0.00,WUHU216DAVISVP2,2013-03-05 03:50:00,
2013-03-04 19:55:00,46.6,26.4,30.01,East,98,0.0,7.0,45,0.00,,,0.00,WUHU216DAVISVP2,2013-03-05 03:55:00,
2013-03-04 20:00:00,46.5,26.2,30.00,ENE,75,0.0,7.0,45,0.00,,,0.00,WUHU216DAVISVP2,2013-03-05 04:00:00,
2013-03-04 20:05:00,46.3,26.5,30.00,ENE,65,1.0,7.0,46,0.00,,,0.00,WUHU216DAVISVP2,2013-03-05 04:05:00,
2013-03-04 20:10:00,46.2,26.4,30.00,ENE,63,1.0,7.0,46,0.00,,,0.00,WUHU216DAVISVP2,2013-03-05 04:10:00,
2013-03-04 20:15:00,46.1,26.4,30.00,SE,132,1.0,6.0,46,0.00,,,0.00,WUHU216DAVISVP2,2013-03-05 04:15:00,
2013-03-04 20:20:00,45.9,26.2,30.00,ENE,59,1.0,5.0,46,0.00,,,0.00,WUHU216DAVISVP2,2013-03-05 04:20:00,
2013-03-04 20:25:00,45.7,26.5,30.00,ENE,72,1.0,5.0,47,0.00,,,0.00,WUHU216DAVISVP2,2013-03-05 04:25:00,
2013-03-04 20:30:00,45.5,26.3,30.00,NNE,26,0.0,5.0,47,0.00,,,0.00,WUHU216DAVISVP2,2013-03-05 04:30:00,
2013-03-04 20:35:00,45.3,26.2,30.00,NE,47,0.0,5.0,47,0.00,,,0.00,WUHU216DAVISVP2,2013-03-05 04:35:00,
2013-03-04 20:40:00,45.1,26.6,29.99,ENE,68,0.0,4.0,48,0.00,,,0.00,WUHU216DAVISVP2,2013-03-05 04:40:00,
2013-03-04 20:45:00,45.0,27.0,30.00,ENE,67,1.0,4.0,49,0.00,,,0.00,WUHU216DAVISVP2,2013-03-05 04:45:00,
2013-03-04 20:50:00,45.0,26.4,30.00,NE,55,2.0,5.0,48,0.00,,,0.00,WUHU216DAVISVP2,2013-03-05 04:50:00,
2013-03-04 20:55:00,44.9,26.3,30.00,ENE,76,2.0,5.0,48,0.00,,,0.00,WUHU216DAVISVP2,2013-03-05 04:55:00,
2013-03-04 21:00:00,45.0,26.9,30.00,ENE,58,2.0,5.0,49,0.00,,,0.00,WUHU216DAVISVP2,2013-03-05 05:00:00,
2013-03-04 21:05:00,44.8,26.7,30.00,North,354,0.0,5.0,49,0.00,,,0.00,WUHU216DAVISVP2,2013-03-05 05:05:00,
2013-03-04 21:10:00,44.7,26.6,30.00,ENE,75,1.0,4.0,49,0.00,,,0.00,WUHU216DAVISVP2,2013-03-05 05:10:00,
2013-03-04 21:15:00,44.5,26.5,30.00,NE,53,0.0,5.0,49,0.00,,,0.00,WUHU216DAVISVP2,2013-03-05 05:15:00,
2013-03-04 21:20:00,44.4,26.9,30.00,NE,46,1.0,5.0,50,0.00,,,0.00,WUHU216DAVISVP2,2013-03-05 05:20:00,
2013-03-04 21:25:00,44.3,27.3,30.00,ENE,77,0.0,4.0,51,0.00,,,0.00,WUHU216DAVISVP2,2013-03-05 05:25:00,
2013-03-04 21:30:00,44.1,26.6,30.00,ENE,70,2.0,4.0,50,0.00,,,0.00,WUHU216DAVISVP2,2013-03-05 05:30:00,
2013-03-04 21:35:00,44.2,26.7,30.00,ENE,68,1.0,3.0,50,0.00,,,0.00,WUHU216DAVISVP2,2013-03-05 05:35:00,
2013-03-04 21:40:00,44.2,26.7,30.00,ENE,58,2.0,3.0,50,0.00,,,0.00,WUHU216DAVISVP2,2013-03-05 05:40:00,
2013-03-04 21:45:00,44.0,26.5,30.00,ENE,77,0.0,3.0,50,0.00,,,0.00,WUHU216DAVISVP2,2013-03-05 05:45:00,
2013-03-04 21:50:00,44.0,26.5,30.00,ENE,77,0.0,3.0,50,0.00,,,0.00,WUHU216DAVISVP2,2013-03-05 05:50:00,
2013-03-04 21:55:00,44.1,26.6,30.00,East,94,0.0,2.0,50,0.00,,,0.00,WUHU216DAVISVP2,2013-03-05 05:55:00,
2013-03-04 22:00:00,43.9,26.4,30.00,East,83,0.0,2.0,50,0.00,,,0.00,WUHU216DAVISVP2,2013-03-05 06:00:00,
2013-03-04 22:05:00,43.6,26.6,29.99,East,89,0.0,2.0,51,0.00,,,0.00,WUHU216DAVISVP2,2013-03-05 06:05:00,
2013-03-04 22:10:00,43.3,26.8,29.99,North,1,0.0,2.0,52,0.00,,,0.00,WUHU216DAVISVP2,2013-03-05 06:10:00,
2013-03-04 22:15:00,43.1,27.1,29.99,ENE,60,0.0,2.0,53,0.00,,,0.00,WUHU216DAVISVP2,2013-03-05 06:15:00,
2013-03-04 22:20:00,43.1,26.7,29.99,ENE,65,0.0,2.0,52,0.00,,,0.00,WUHU216DAVISVP2,2013-03-05 06:20:00,
2013-03-04 22:25:00,43.1,26.7,29.99,East,86,1.0,2.0,52,0.00,,,0.00,WUHU216DAVISVP2,2013-03-05 06:25:00,
2013-03-04 22:30:00,43.0,27.0,29.99,NNE,17,0.0,2.0,53,0.00,,,0.00,WUHU216DAVISVP2,2013-03-05 06:30:00,
2013-03-04 22:35:00,42.9,26.9,29.99,NE,46,0.0,2.0,53,0.00,,,0.00,WUHU216DAVISVP2,2013-03-05 06:35:00,
2013-03-04 22:40:00,42.8,27.3,29.98,North,5,0.0,1.0,54,0.00,,,0.00,WUHU216DAVISVP2,2013-03-05 06:40:00,
2013-03-04 22:45:00,42.8,26.8,29.98,NE,47,0.0,2.0,53,0.00,,,0.00,WUHU216DAVISVP2,2013-03-05 06:45:00,
2013-03-04 22:50:00,42.7,26.7,29.98,ENE,77,0.0,2.0,53,0.00,,,0.00,WUHU216DAVISVP2,2013-03-05 06:50:00,
2013-03-04 22:55:00,42.7,26.7,29.97,North,356,0.0,2.0,53,0.00,,,0.00,WUHU216DAVISVP2,2013-03-05 06:55:00,
2013-03-04 23:00:00,42.8,26.4,29.97,ENE,77,0.0,2.0,52,0.00,,,0.00,WUHU216DAVISVP2,2013-03-05 07:00:00,
2013-03-04 23:05:00,42.7,26.3,29.97,ENE,70,0.0,2.0,52,0.00,,,0.00,WUHU216DAVISVP2,2013-03-05 07:05:00,
2013-03-04 23:10:00,42.7,26.3,29.97,ENE,73,0.0,2.0,52,0.00,,,0.00,WUHU216DAVISVP2,2013-03-05 07:10:00,
2013-03-04 23:15:00,42.7,26.3,29.97,East,86,0.0,2.0,52,0.00,,,0.00,WUHU216DAVISVP2,2013-03-05 07:15:00,
2013-03-04 23:20:00,42.7,26.3,29.97,East,86,0.0,2.0,52,0.00,,,0.00,WUHU216DAVISVP2,2013-03-05 07:20:00,
2013-03-04 23:25:00,42.4,26.0,29.97,East,86,0.0,2.0,52,0.00,,,0.00,WUHU216DAVISVP2,2013-03-05 07:25:00,
2013-03-04 23:30:00,42.3,26.4,29.97,NNE,18,0.0,1.0,53,0.00,,,0.00,WUHU216DAVISVP2,2013-03-05 07:30:00,
2013-03-04 23:35:00,42.2,26.3,29.97,ENE,70,0.0,1.0,53,0.00,,,0.00,WUHU216DAVISVP2,2013-03-05 07:35:00,
2013-03-04 23:40:00,42.4,26.0,29.97,ENE,75,0.0,2.0,52,0.00,,,0.00,WUHU216DAVISVP2,2013-03-05 07:40:00,
2013-03-04 23:45:00,42.5,26.6,29.97,NNE,30,0.0,2.0,53,0.00,,,0.00,WUHU216DAVISVP2,2013-03-05 07:45:00,
2013-03-04 23:50:00,42.6,26.2,29.96,ENE,60,0.0,2.0,52,0.00,,,0.00,WUHU216DAVISVP2,2013-03-05 07:50:00,
2013-03-04 23:55:00,42.6,25.7,29.96,ENE,63,0.0,2.0,51,0.00,,,0.00,WUHU216DAVISVP2,2013-03-05 07:55:00,